Location: Unspecified
(43.8044°N, 11.0278°E)
Time: 04:22:35
(UTC+02:00)

CZ-3 Stage 3 - Visible Passes

Search period start: 02 October 2014 00:00
Search period end: 12 October 2014 00:00
Orbit: 411 x 34833 km, 30.8° (Epoch: 29 September)

Date Brightness Start Highest point End Pass type
(mag) Time Alt. Az. Time Alt. Az. Time Alt. Az.
02 Oct 6.7 00:53:30 10° S 08:16:46 53° S 08:27:28 10° ESE visible
02 Oct 8.3 23:03:39 10° SE 04:13:04 42° SSE 04:50:20 10° E visible
05 Oct 6.6 00:46:27 10° S 08:14:01 54° S 08:24:27 10° ESE visible
05 Oct 8.2 22:48:39 10° SE 04:11:08 44° SSE 04:47:35 10° E visible
06 Oct 8.9 23:34:22 10° ESE 00:07:35 11° ESE 00:31:35 10° E visible
08 Oct 6.6 00:39:34 10° S 08:11:05 54° S 08:21:16 10° ESE visible
08 Oct 8.1 22:33:51 10° SE 04:08:59 45° SSE 04:44:38 10° E visible
09 Oct 8.9 23:08:45 10° ESE 00:04:06 13° ESE 00:37:51 10° E visible
11 Oct 6.5 00:32:48 10° S 08:07:57 55° S 08:17:56 10° ESE visible
11 Oct 10.2 22:19:14 10° SE 00:00:00 22° SSE 00:00:00 22° SSE visible
